STARLINK-11488, 62222

Orbit data source: Space-Track

STARLINK-11488, 62222 is a payload satellite owned by SpaceX/Seattle (US) in LEO that was launched on Thu, 05 Dec 2024 UTC via an FALCON 9 launch vehicle from the Air Force Western Test Range (AFWTR). Payload-class satellites include a variety of spacecraft equipped with specific instruments for various scientific and technological missions. These include communications satellites like Starlink; space stations such as the ISS; scientific satellites like the Hubble; Earth observation satellites from companies like Planet Labs, Umbra, and HawkEye 360; GPS; miniature CubeSats for education and research; and military/defense satellites.

Loading next visibility...
Identifier
62222, 2024-231E
Orbit
LEO
Last TLE update
4 hours ago
Origin
Manufacturer
SpaceX/Seattle
Mission
Operational Commercial Communications
Bus & Motor
STARLINK V2M, Unknown motor
Mass
730 kg wet, ~700 kg dry
Launch date (UTC)
2024-12-05 (7 months ago)
Launch vehicle
FALCON 9
Launch site
Air Force Western Test Range (AFWTR)
Object type
Payload
Rocket body
Debris
Shape & HBR
Box + 2 Pan, 29 m
Radar Cross Section
36.964 m², Large (>1 m²)

Expand to show TLE details & history

TLE from 4 hours ago
0 STARLINK-11488
1 62222U 24231E   25182.22027209  .00157824  00000-0  12779-2 0  9993
2 62222  53.1565 261.0469 0001032  90.6492 269.4644 15.69804547 33656
Epoch: 2025-07-01T05:17Z
TLE epoch observation values (Epoch: 2025-07-01T05:17:11.508Z)
Latitude
-0.00004°
Longitude
-97.76993°
Altitude
360.377 km
Speed
7.694 km/s
True Right ascension
17h 24m 11s
True Declination
0° 00' 00"
Sunlit
Object was in full shadow at epoch
Visualization orbit readout
Latitude
47.3088°
Longitude
27.63313°
Altitude
363.884 km
Speed
7.697 km/s
Apparent Right ascension
05h 15m 59s
Apparent Declination
8° 04' 56"
Sunlit
Object is in daylight
Visualization observer readout
Local Sidereal Time
20:27:37
Azimuth
54.007° ENE
Elevation
-24.758°
Doppler factor
1
Orbital elements
Apogee altitude
360.413 km
Perigee altitude
359.022 km
Semi-major axis
6,737.854 km
Eccentricity
0.0001
Inclination
53.1565°
RAAN
261.0469°
Arg. of periapsis
90.6492°
True anomaly
Unknown
Mean anomaly
269.4644°
Eccentric anomaly
Unknown
Mean motion
3.92429 °/min
Orbital period
91.74 mins
BSTAR
0.0012779
Loading maneuver chart data...
Loading SW <> Apogee altitude chart data...
Loading historical data...
Loading historical data...
Loading historical data...
Loading historical data...
Loading historical data...
Loading historical data...
Loading historical data...

STARLINK-11488 Visibility forecast

Observer location: undefined°, undefined°

Span
Click to sort rows by Start time (UTC) header in descending order
Start Az.
Max El. time (UTC)
Max El. Az.
Max El.
End time (UTC)
End Az.
4 mins2025-07-02 07:26:26.864Z196.002° SSW2025-07-02 07:28:26.864Z113.809° SE31.785°2025-07-02 07:30:26.864Z66.4° ENE
|